Wind_Speed
20 20 20 20 19 18 18 17 16 15 14 13 12 10 9 8 8 7 5 5 6 7 8 9 10 12 13 13 14 15 16 18 18 20 22 24 25 26 25 24 22 21
19 19 19 19 19 19 20 19 18 17 16 15 14 12 11 10 9 8 7 6 5 5 6 7 8 10 11 11 12 13 15 16 17 18 20 22 24 26 26 25 24 22
18 19 18 19 18 18 19 19 18 18 17 16 16 14 13 12 11 10 9 9 7 6 5 5 6 8 9 10 10 11 12 14 15 17 18 19 21 23 23 25 25 25
18 18 19 19 18 18 18 17 17 17 17 16 16 16 15 15 14 12 11 11 10 9 8 6 6 6 7 8 8 9 10 11 12 14 16 16 18 20 21 22 23 25
18 18 18 18 18 18 18 17 17 17 16 16 16 16 15 15 15 14 14 13 13 12 11 9 8 7 7 7 7 8 8 9 10 11 12 13 14 16 17 19 21 22
18 18 18 18 18 18 18 18 18 17 17 16 16 16 16 16 15 15 15 15 14 14 14 13 11 9 8 8 8 8 8 8 8 9 10 10 11 12 13 15 17 19
19 19 18 18 18 18 18 18 18 18 17 17 17 16 16 16 16 15 15 15 15 15 15 15 14 12 10 9 9 9 10 9 9 9 9 9 10 10 11 13 15 16
20 20 20 19 19 19 18 19 18 18 19 18 17 17 17 17 16 16 15 15 15 15 15 15 15 15 14 12 10 11 11 11 11 11 11 11 11 10 10 11 13 14
21 21 21 21 20 20 20 20 20 20 20 19 19 18 18 18 18 17 17 16 16 15 15 15 15 15 15 15 14 13 13 12 12 13 13 13 12 12 12 12 12 13
23 22 22 22 22 22 22 21 21 21 21 21 21 20 20 19 19 19 19 18 17 17 16 16 16 16 15 15 15 15 15 14 13 13 14 14 14 14 14 13 13 14
24 24 24 24 24 24 23 23 23 23 23 23 23 22 22 21 21 21 20 20 20 19 19 18 18 17 17 16 16 16 15 15 15 14 13 13 14 15 16 15 14 14
25 25 26 26 26 25 25 25 25 25 25 25 24 24 24 24 23 23 22 22 22 21 21 20 20 19 18 18 18 17 17 16 15 15 15 14 13 13 16 17 17 16
26 26 26 26 26 27 27 27 27 26 26 26 26 26 26 26 25 25 24 24 23 23 23 22 22 21 20 20 19 19 19 18 18 17 16 16 15 14 14 15 17 18
26 26 26 26 27 27 27 27 28 28 28 28 28 28 27 28 28 27 27 26 25 25 24 24 23 22 22 22 22 21 21 21 21 20 19 18 17 16 15 15 16 18
26 26 27 27 27 27 27 28 28 28 29 29 29 29 29 29 29 29 29 28 27 26 26 25 25 23 23 24 25 25 24 23 23 22 22 21 20 19 17 16 16 17
27 26 27 27 28 28 28 29 29 29 30 30 30 30 30 30 30 30 31 31 30 29 28 27 26 25 25 25 25 26 26 26 25 24 24 23 23 22 21 19 18 17
26 26 27 27 28 29 29 30 30 31 31 32 32 32 32 32 32 32 32 32 32 32 31 30 29 28 27 26 26 26 27 27 27 26 26 25 25 25 25 23 21 20
26 27 27 27 28 29 29 30 31 32 33 34 34 34 34 33 33 33 33 33 33 34 33 33 31 30 29 28 28 27 28 28 29 29 28 27 27 27 27 26 25 23
27 27 27 28 28 29 29 29 30 32 33 34 35 36 36 36 35 35 35 34 34 35 35 34 34 32 31 30 30 29 29 29 30 30 30 29 29 29 29 29 27 26
27 27 28 28 28 28 29 30 30 31 32 33 35 36 37 37 37 37 37 36 36 36 36 36 35 34 33 33 32 31 31 31 32 32 32 31 30 30 30 31 30 29
27 27 28 28 28 29 29 29 30 31 32 33 34 35 36 37 38 38 39 39 38 38 39 38 36 35 34 34 34 33 33 33 34 34 34 34 33 32 32 32 32 32
27 27 27 28 28 28 29 29 30 30 31 32 33 34 35 36 36 37 38 39 40 39 40 41 39 37 35 35 35 34 34 35 35 35 35 35 35 34 33 33 33 34
26 27 28 28 28 28 29 29 29 29 30 31 32 33 34 35 36 36 37 38 39 40 41 42 42 39 37 36 35 34 35 36 37 37 37 37 37 36 35 34 34 35
26 27 27 28 28 28 29 29 29 29 29 30 31 32 33 33 34 36 36 37 38 39 40 42 43 41 38 38 37 35 35 36 37 38 39 39 38 38 37 36 36 36
25 26 27 27 28 28 29 29 30 30 30 30 31 32 33 33 34 35 36 36 37 38 39 40 42 42 39 38 38 36 35 36 37 38 40 40 39 39 39 38 37 37
25 25 26 27 28 28 29 30 30 31 31 32 32 33 34 34 34 35 36 36 35 36 38 38 40 41 39 38 37 36 35 35 36 38 39 40 40 39 40 40 39 38
Wind_Direction
55 54 51 49 48 48 45 41 37 35 32 30 28 24 18 14 5 353 331 304 289 280 273 269 265 259 255 254 253 254 253 255 257 260 268 276 280 283 286 287 288 289
50 50 49 49 49 49 47 45 43 41 39 36 34 32 29 25 17 9 0 345 323 302 287 280 279 274 268 262 257 255 253 254 256 256 258 263 267 271 273 275 278 280
42 41 41 40 40 42 42 41 41 42 42 41 39 36 35 33 27 21 17 10 3 350 329 307 299 293 286 277 268 262 258 255 255 256 257 258 260 263 264 264 266 268
33 32 31 30 29 30 32 32 34 36 36 38 38 37 37 37 33 31 31 26 20 14 4 350 333 321 311 299 288 277 268 263 261 259 258 257 258 262 264 264 261 259
23 23 22 21 20 20 20 20 23 25 26 28 30 31 31 33 32 32 34 35 32 27 21 14 1 347 339 331 318 305 290 277 271 268 266 263 260 262 265 267 266 263
14 14 13 12 11 11 10 9 10 12 14 16 18 19 20 22 23 24 28 31 31 31 29 24 17 6 354 344 340 334 324 311 296 284 278 273 269 269 269 268 269 269
4 4 3 3 2 1 1 1 0 0 1 4 5 6 7 10 11 14 17 20 22 24 25 25 23 19 9 353 343 340 337 331 322 311 300 290 282 278 277 275 274 273
356 355 354 354 353 353 352 352 352 352 351 351 353 354 356 357 358 0 3 6 9 11 14 17 19 19 17 10 359 349 340 334 330 325 319 310 301 295 290 287 285 281
348 347 347 346 344 344 344 345 344 344 344 343 342 344 346 346 346 348 349 351 354 357 0 5 8 11 12 11 10 5 356 346 335 327 323 320 316 311 303 298 295 291
342 341 341 340 339 339 338 338 338 337 337 336 335 335 336 337 338 338 338 339 341 343 347 351 355 359 1 1 4 5 3 359 350 337 326 319 317 317 313 306 301 298
337 336 335 335 334 334 334 333 333 332 332 331 330 329 329 330 331 331 331 331 332 333 336 339 343 346 347 348 351 353 354 355 353 350 341 326 313 309 311 310 305 301
331 331 331 331 331 330 330 329 329 328 328 327 326 324 324 324 325 326 326 325 326 327 328 329 332 335 335 335 337 338 339 341 343 345 346 342 329 311 304 303 302 299
326 327 327 327 327 327 326 326 325 325 324 324 323 322 321 320 320 320 321 321 321 321 322 323 324 326 326 325 325 326 327 328 330 332 336 340 341 333 318 306 300 299
322 323 323 323 323 323 323 322 322 322 321 320 320 319 319 317 317 317 316 317 317 316 316 317 318 320 320 319 319 319 319 319 320 322 325 328 331 335 335 326 313 302
319 319 320 320 320 320 320 320 320 319 319 318 317 316 316 315 314 315 313 312 312 312 311 312 312 314 316 316 316 316 315 314 313 314 315 318 320 323 327 330 326 315
315 316 316 317 317 318 318 318 318 318 317 316 315 314 313 312 311 311 311 310 309 308 307 307 308 309 311 312 313 312 311 310 309 308 308 309 311 314 316 319 322 323
311 311 312 313 314 315 315 316 316 316 316 315 314 313 311 310 309 308 308 308 307 306 305 305 304 306 307 307 307 307 307 306 305 304 303 303 304 306 308 309 311 315
308 308 308 308 309 310 311 312 313 314 314 313 313 312 310 309 307 306 305 305 304 303 302 302 302 302 303 304 303 302 302 301 300 300 299 299 299 300 300 302 304 305
306 306 305 305 305 305 306 307 308 310 310 310 310 310 309 308 307 306 304 302 301 300 299 299 299 300 300 300 300 299 299 298 296 295 295 295 295 295 295 296 297 299
306 305 303 302 302 302 302 302 304 305 305 306 307 307 306 306 305 304 302 301 300 298 296 295 295 297 298 298 298 297 297 295 293 292 291 290 290 291 291 291 292 293
306 305 303 302 301 300 300 299 300 301 301 302 302 302 303 303 302 302 301 300 299 298 296 294 293 294 295 295 295 296 295 294 291 290 288 286 286 286 286 287 287 287
309 307 305 304 302 301 299 299 298 298 298 299 298 298 299 299 299 299 298 297 297 296 295 293 291 292 293 292 293 294 293 292 290 288 286 284 283 283 283 283 283 284
313 311 309 308 306 304 302 301 300 298 298 298 297 296 296 296 297 297 296 296 295 294 294 292 290 290 292 291 291 291 292 290 289 287 285 283 281 280 280 280 280 280
315 314 312 311 310 308 307 306 305 303 302 300 299 297 295 295 295 295 294 294 294 293 293 291 289 289 291 290 290 291 290 289 288 286 284 282 281 280 279 278 277 278
315 314 313 313 311 311 310 309 307 306 305 304 302 300 298 297 295 294 292 292 292 291 291 290 288 288 288 289 288 289 289 288 287 285 283 281 281 281 279 277 275 276
316 315 314 313 312 312 311 310 309 309 307 306 305 303 302 300 298 297 294 292 291 290 289 288 288 287 287 287 286 286 286 287 286 284 282 281 281 281 279 277 275 274
Height
1496 1495 1494 1494 1493 1493 1492 1491 1490 1489 1488 1487 1486 1485 1485 1484 1484 1484 1483 1484 1484 1484 1485 1485 1485 1485 1485 1485 1485 1485 1486 1487 1487 1488 1488 1490 1490 1491 1491 1491 1491 1490
1497 1497 1496 1496 1495 1494 1493 1492 1491 1490 1489 1488 1487 1487 1486 1485 1485 1484 1484 1483 1483 1484 1484 1484 1483 1483 1483 1483 1483 1483 1483 1484 1485 1485 1486 1487 1488 1488 1489 1490 1490 1489
1499 1498 1498 1497 1496 1495 1494 1493 1492 1491 1490 1489 1489 1488 1487 1486 1486 1485 1484 1483 1483 1483 1482 1482 1482 1482 1482 1482 1481 1481 1481 1481 1482 1482 1483 1484 1485 1485 1486 1487 1487 1487
1500 1499 1499 1498 1497 1496 1495 1494 1493 1492 1491 1490 1490 1489 1488 1487 1486 1485 1484 1483 1483 1482 1482 1481 1481 1481 1481 1481 1480 1480 1480 1480 1480 1480 1481 1482 1483 1483 1484 1484 1483 1483
1501 1500 1499 1498 1497 1496 1495 1494 1493 1492 1492 1491 1490 1489 1488 1487 1486 1485 1484 1483 1483 1482 1482 1482 1481 1481 1480 1480 1479 1479 1478 1478 1478 1478 1478 1479 1480 1480 1481 1481 1480 1480
1501 1500 1499 1498 1497 1496 1495 1494 1493 1493 1492 1491 1490 1490 1489 1488 1487 1486 1485 1484 1483 1482 1482 1482 1481 1480 1480 1479 1479 1478 1478 1477 1477 1477 1477 1477 1477 1478 1478 1477 1477 1477
1501 1500 1499 1499 1497 1497 1496 1495 1494 1493 1492 1491 1490 1490 1489 1488 1487 1486 1486 1485 1484 1483 1482 1481 1480 1479 1479 1478 1478 1477 1477 1477 1476 1476 1475 1475 1475 1475 1475 1474 1474 1474
1501 1500 1499 1499 1498 1497 1496 1495 1494 1493 1492 1491 1490 1490 1489 1488 1488 1487 1486 1485 1485 1484 1483 1482 1480 1479 1478 1477 1476 1476 1475 1475 1474 1474 1474 1473 1473 1473 1472 1472 1472 1472
1501 1499 1499 1498 1497 1496 1495 1495 1494 1493 1492 1491 1490 1490 1489 1488 1487 1487 1486 1485 1485 1484 1483 1482 1480 1478 1477 1476 1475 1475 1474 1474 1473 1473 1472 1472 1471 1471 1470 1470 1470 1470
1500 1499 1498 1497 1496 1495 1494 1494 1493 1492 1491 1490 1490 1489 1488 1487 1486 1486 1485 1484 1484 1483 1482 1481 1479 1478 1477 1476 1475 1474 1474 1473 1473 1472 1472 1471 1470 1470 1469 1469 1468 1468
1498 1497 1496 1495 1495 1494 1493 1492 1491 1490 1490 1489 1488 1487 1487 1486 1485 1484 1484 1483 1482 1481 1480 1480 1479 1477 1476 1475 1475 1474 1473 1473 1472 1471 1471 1470 1470 1469 1468 1468 1467 1467
1497 1496 1495 1494 1493 1492 1491 1490 1490 1489 1488 1487 1486 1485 1485 1484 1483 1483 1482 1481 1481 1480 1479 1478 1477 1477 1476 1474 1473 1473 1472 1472 1471 1471 1470 1469 1469 1468 1467 1467 1466 1466
1496 1495 1493 1492 1491 1490 1489 1489 1488 1487 1486 1485 1484 1483 1483 1482 1481 1481 1480 1480 1479 1478 1478 1477 1476 1475 1475 1473 1472 1471 1470 1470 1469 1469 1469 1468 1467 1467 1466 1465 1465 1464
1495 1493 1492 1491 1490 1489 1488 1487 1486 1485 1484 1483 1482 1481 1481 1480 1479 1479 1478 1478 1477 1477 1476 1476 1475 1474 1473 1472 1471 1470 1469 1468 1467 1467 1466 1466 1465 1465 1464 1463 1462 1462
1493 1492 1491 1489 1488 1487 1486 1485 1484 1483 1482 1481 1480 1479 1478 1478 1477 1476 1475 1475 1475 1474 1474 1473 1473 1473 1472 1471 1470 1468 1467 1466 1465 1465 1464 1463 1462 1462 1462 1461 1460 1459
1492 1491 1489 1488 1486 1485 1484 1483 1482 1481 1480 1479 1478 1477 1476 1475 1474 1474 1473 1472 1471 1471 1471 1470 1470 1470 1470 1469 1468 1467 1465 1464 1463 1463 1462 1461 1460 1459 1459 1459 1458 1458
1491 1489 1488 1486 1485 1483 1482 1481 1479 1478 1477 1476 1475 1474 1474 1473 1472 1471 1470 1469 1468 1467 1467 1467 1467 1467 1467 1467 1466 1465 1464 1462 1461 1460 1459 1458 1458 1457 1456 1456 1456 1456
1489 1488 1486 1485 1483 1482 1480 1479 1477 1476 1474 1473 1472 1471 1470 1469 1469 1468 1468 1467 1465 1464 1464 1463 1463 1464 1464 1464 1463 1462 1461 1460 1458 1457 1456 1455 1455 1454 1453 1453 1452 1453
1487 1486 1485 1483 1482 1480 1479 1477 1476 1474 1472 1471 1469 1468 1466 1466 1465 1465 1464 1464 1463 1461 1460 1460 1460 1460 1460 1460 1459 1459 1458 1457 1455 1454 1453 1452 1452 1451 1450 1450 1450 1450
1485 1484 1483 1481 1480 1478 1477 1476 1474 1473 1471 1469 1467 1466 1464 1463 1462 1461 1461 1460 1459 1458 1457 1456 1456 1456 1456 1456 1455 1455 1454 1453 1451 1450 1449 1449 1448 1448 1447 1447 1447 1447
1483 1482 1480 1479 1478 1476 1475 1474 1472 1471 1469 1468 1466 1464 1463 1461 1459 1458 1457 1456 1455 1454 1452 1452 1453 1453 1453 1452 1451 1451 1450 1449 1447 1446 1445 1445 1445 1445 1444 1444 1443 1443
1481 1479 1478 1476 1475 1474 1472 1471 1470 1469 1467 1465 1464 1462 1461 1459 1457 1456 1454 1452 1451 1450 1448 1447 1448 1449 1449 1449 1448 1447 1446 1445 1443 1442 1441 1440 1440 1441 1441 1440 1440 1440
1478 1476 1475 1473 1472 1471 1470 1469 1467 1466 1465 1463 1461 1460 1458 1456 1455 1453 1451 1450 1448 1447 1445 1443 1442 1444 1445 1444 1444 1444 1442 1441 1439 1437 1436 1436 1436 1436 1436 1436 1436 1436
1475 1474 1472 1470 1469 1468 1466 1465 1464 1463 1462 1460 1458 1457 1455 1454 1452 1450 1449 1447 1445 1444 1442 1440 1438 1439 1441 1440 1440 1440 1439 1437 1435 1433 1431 1431 1430 1431 1431 1431 1431 1431
1473 1471 1469 1468 1466 1465 1463 1462 1460 1459 1458 1456 1455 1453 1451 1450 1449 1447 1445 1444 1443 1441 1439 1437 1435 1434 1436 1436 1435 1435 1435 1433 1431 1429 1427 1426 1426 1425 1425 1426 1426 1426
1470 1468 1466 1465 1463 1462 1460 1459 1457 1456 1454 1452 1451 1449 1447 1446 1444 1443 1441 1440 1440 1438 1436 1435 1432 1430 1431 1432 1431 1431 1431 1429 1427 1425 1423 1422 1421 1421 1420 1420 1420 1421